Location: Tel Aviv
(32.0670°N, 34.7670°E)
Time: 12:03:19
(UTC+02:00)

Altair - Visible Passes

Search period start: 05 December 2023 00:00
Search period end: 15 December 2023 00:00
Orbit: 1501 x 1682 km, 47.2° (Epoch: 04 December)

Date Brightness Start Highest point End Pass type
(mag) Time Alt. Az. Time Alt. Az. Time Alt. Az.
05 Dec 9.7 05:03:03 10° S 05:10:30 24° SE 05:17:46 10° ENE visible
06 Dec 9.8 04:38:24 10° S 04:45:23 22° SE 04:52:11 10° E visible
07 Dec 9.8 04:13:51 10° SSE 04:20:15 19° SE 04:26:32 10° E visible
08 Dec 9.9 03:49:25 10° SSE 03:55:08 17° SE 04:00:45 10° E visible
08 Dec 8.0 05:48:58 10° SW 05:58:51 70° SE 06:08:23 10° NE visible
09 Dec 9.9 03:25:11 10° SSE 03:30:01 15° ESE 03:34:47 10° E visible
09 Dec 8.1 05:23:49 10° SW 05:33:40 65° SE 05:43:09 10° ENE visible
10 Dec 9.9 03:01:15 10° SE 03:04:55 12° ESE 03:08:31 10° E visible
10 Dec 8.1 04:58:42 10° SSW 05:08:28 60° SE 05:17:54 10° ENE visible
11 Dec 9.9 02:38:15 10° SE 02:39:48 10° ESE 02:41:21 10° ESE visible
11 Dec 8.2 04:33:37 10° SSW 04:43:18 54° SE 04:52:39 10° ENE visible
12 Dec 8.3 04:08:34 10° SSW 04:18:07 50° SE 04:27:22 10° ENE visible
13 Dec 8.4 03:43:34 10° SSW 03:52:57 45° SE 04:02:03 10° ENE visible
13 Dec 7.6 05:47:42 10° WSW 05:57:34 63° NNW 06:07:07 10° NE visible
14 Dec 8.5 03:20:59 18° S 03:27:47 41° SE 03:36:44 10° ENE visible
14 Dec 7.6 05:22:20 10° WSW 05:32:17 67° NW 05:41:56 10° NE visible
